RH
57 60 63 72 89 66 70 75 78 81 89 94 94 77 69 76 79 65 48 44 38 38 41 44 49 50 46 38 34 27 23 21
60 64 62 66 68 72 72 76 79 89 92 88 80 65 66 61 52 44 38 42 46 50 50 47 42 36 31 27 27 27 20 15
49 55 62 68 70 70 71 79 84 78 69 53 58 66 58 52 40 44 52 56 57 58 57 48 36 30 28 27 23 18 13 8
35 47 57 62 62 64 74 74 41 39 37 44 53 51 48 47 50 54 56 63 67 67 64 42 34 31 27 20 14 10 6 4
27 35 40 53 54 54 45 50 45 42 46 46 46 72 98 62 70 67 76 75 74 60 41 38 33 25 17 12 7 5 4 4
38 42 56 47 43 47 52 49 49 57 60 62 64 66 70 74 78 82 84 85 62 46 37 31 24 16 9 6 5 4 4 5
51 53 47 44 50 53 50 49 53 57 61 65 68 74 80 87 86 90 92 87 61 38 31 20 13 9 7 5 4 5 6 23
49 48 43 52 49 57 56 54 57 60 63 68 74 77 79 83 98 90 78 53 41 30 20 14 9 7 5 5 5 13 91 92
52 44 54 49 54 58 56 57 59 62 66 66 77 89 94 99 76 62 52 40 28 20 15 12 7 5 5 5 42 93 96 96
52 53 57 53 60 63 60 62 62 63 67 80 96 99 100 89 62 53 42 26 19 16 13 8 6 5 6 45 82 84 88 90
58 60 57 57 61 66 67 68 64 69 79 86 99 100 99 88 55 42 28 20 18 14 10 6 5 6 7 52 50 60 95 84
74 60 59 61 63 67 72 73 74 80 81 94 100 98 74 61 46 34 23 20 17 12 7 6 6 8 12 15 80 87 87 95
94 64 60 64 66 68 74 76 82 84 87 100 100 80 68 56 41 28 20 18 14 8 6 6 8 30 19 20 49 84 79 91
95 64 57 63 68 69 73 80 85 85 93 100 90 78 70 49 29 20 18 16 12 7 7 8 11 14 20 46 70 63 83 84
95 76 59 63 68 74 75 79 86 86 99 97 87 78 58 34 20 20 17 15 8 7 8 11 28 33 89 66 62 70 83 99
59 56 59 63 68 74 77 80 89 98 100 93 89 71 49 21 21 18 17 12 7 8 11 15 32 84 94 81 68 87 97 99
39 48 58 65 71 74 77 88 98 100 100 96 84 54 22 28 21 17 14 8 8 11 14 16 25 63 74 73 65 42 34 27
40 48 52 60 67 72 83 97 100 100 100 96 81 45 51 31 17 16 8 9 13 17 19 20 26 50 54 59 43 25 21 24
29 29 29 56 72 78 99 100 99 98 97 96 77 43 26 17 16 9 10 14 18 18 22 23 32 42 59 59 37 19 18 22
Wind_Speed
15 15 15 14 15 16 15 18 20 21 22 19 15 6 6 9 10 11 14 16 19 22 26 28 31 35 38 41 43 44 46 49
18 18 17 18 18 20 17 18 18 23 15 16 11 8 8 10 11 14 16 18 21 24 29 33 36 37 41 43 45 45 46 46
21 21 20 20 20 22 20 19 16 14 15 14 11 10 11 13 14 15 18 23 27 31 33 37 39 40 42 44 46 46 45 44
22 22 22 22 22 21 19 13 10 11 13 11 12 13 14 15 17 22 24 28 32 36 40 40 40 42 43 44 46 45 43 44
21 19 19 17 15 11 9 9 8 7 10 12 12 11 12 18 24 29 31 36 37 39 39 41 41 41 43 43 42 45 43 44
17 17 19 17 13 12 10 9 8 9 12 14 16 18 21 27 30 34 38 38 40 41 41 43 44 41 41 42 43 41 43 43
20 23 21 16 14 11 11 11 13 15 17 20 22 24 28 31 34 35 39 42 39 39 40 40 40 40 40 41 43 41 41 40
25 24 20 17 16 14 15 16 17 18 21 25 28 30 34 40 30 38 41 38 38 39 39 38 37 38 39 40 41 37 26 35
25 24 22 20 18 15 18 20 21 23 26 30 33 33 38 33 37 34 35 36 38 38 38 39 39 39 39 41 33 24 32 38
26 25 24 23 21 18 19 22 24 26 30 33 34 37 37 38 34 34 36 37 37 39 40 41 41 40 37 29 28 30 37 42
26 27 26 25 24 23 23 25 27 28 32 36 38 40 38 38 37 34 36 36 39 40 41 40 39 39 38 28 28 29 31 36
25 29 28 28 29 28 28 30 32 31 37 39 38 41 36 33 33 36 38 39 41 42 41 42 41 38 34 31 22 26 31 32
24 30 30 31 32 32 34 35 36 34 40 39 42 34 33 33 35 39 40 40 41 42 42 44 42 36 34 31 24 28 29 28
27 32 31 35 35 36 38 39 39 38 40 42 36 35 33 34 36 38 40 41 42 43 44 43 42 39 34 29 24 25 26 25
28 34 35 36 38 39 41 42 41 41 42 36 33 33 33 34 36 38 40 42 43 43 43 42 36 35 26 23 23 25 27 26
32 35 36 38 41 43 42 42 41 40 42 33 32 33 34 35 37 38 41 43 44 44 42 38 35 24 28 28 29 24 24 25
28 31 34 36 40 41 40 39 41 41 40 35 32 30 31 35 37 38 42 43 44 43 40 36 31 24 28 30 27 24 26 28
25 27 30 34 38 39 38 39 43 42 41 34 28 29 32 35 36 39 41 42 42 39 37 35 30 28 24 25 24 25 26 27
21 25 30 34 37 40 38 42 43 47 43 38 25 29 32 34 37 39 40 40 38 36 35 34 29 28 23 24 24 25 26 27
Wind_Direction
197 199 203 206 222 247 255 265 275 281 285 294 297 272 258 257 260 276 289 295 298 302 302 302 300 297 296 297 298 299 300 302
213 215 221 226 238 248 253 261 275 277 287 282 282 283 273 270 277 285 290 295 296 297 299 302 301 300 300 300 300 301 301 301
223 230 235 240 247 257 262 265 268 270 274 273 275 273 266 270 276 281 290 297 302 303 304 304 302 303 303 301 301 301 302 301
236 237 242 249 254 256 255 250 260 272 270 269 266 264 269 277 285 289 297 306 307 306 303 304 304 304 304 303 303 302 303 302
245 241 239 227 225 226 222 276 292 266 266 264 262 256 252 290 289 295 300 307 309 307 305 305 306 306 304 304 304 305 304 301
235 221 212 211 210 225 262 261 260 274 277 274 266 272 272 285 293 298 299 304 310 308 308 309 309 310 309 307 306 304 302 298
214 214 214 217 232 262 257 248 263 273 279 283 282 277 279 284 288 290 298 308 305 308 310 309 311 312 311 308 306 305 301 295
224 221 218 235 243 268 248 252 262 272 277 280 274 275 279 279 286 300 306 305 310 310 310 313 315 314 311 309 308 305 294 288
224 219 232 238 246 258 248 258 268 275 279 287 283 282 283 292 315 309 306 310 311 312 317 320 320 319 318 315 312 298 295 293
224 230 238 241 249 264 262 265 275 284 287 285 284 286 282 308 314 312 314 312 314 320 323 324 322 319 318 313 300 295 293 294
228 238 245 253 259 269 274 275 280 284 284 284 290 294 294 314 311 311 310 314 320 323 323 322 321 319 320 307 295 288 280 290
232 246 254 261 263 271 278 279 280 281 294 288 291 298 311 306 311 310 313 319 323 323 323 322 322 321 318 318 306 289 285 290
227 253 259 264 269 272 277 283 280 281 294 292 290 308 310 310 309 312 318 322 323 323 325 325 324 321 317 315 298 290 282 282
228 255 264 265 270 274 277 280 282 282 289 288 304 311 310 309 311 317 319 320 322 325 325 324 320 320 315 307 300 289 287 287
234 254 265 268 271 275 279 281 280 280 288 298 302 303 306 308 313 315 317 320 323 323 321 321 319 317 308 310 306 298 293 290
252 261 268 272 274 277 279 280 277 280 285 295 296 302 304 309 313 315 318 320 320 320 320 321 318 315 297 306 304 296 295 292
266 267 271 274 277 278 276 274 275 282 287 289 293 298 303 310 312 315 316 317 319 318 319 319 317 297 293 298 300 301 297 297
269 269 271 272 272 275 274 273 276 283 282 283 287 297 306 309 312 313 315 317 316 318 317 316 316 301 307 300 303 304 302 301
278 281 274 270 272 276 272 272 278 278 283 279 298 301 308 310 312 314 315 315 314 314 314 317 313 304 307 304 306 307 306 305